sat.trackr.live / text

‹ back to catalog

NILESAT 201

NORAD 36830 · 2010-037A

PAYLOAD ACTIVE UNKNOWN

§ Identity

Operator
Country
EGYP
Launch date
2010-08-04
Launch site
FRGUI
Launch vehicle
Mass (kg)
RCS (m²)
59.76

Purposes: comms

External: N2YO · Heavens-Above · Gunter

§ Orbital elements

Epoch: 2026-09-12T03:36:26.010720Z

Period
1,436.10 min
Inclination
0.0216°
Eccentricity
0.0005558
Mean motion
1.00271245 rev/d
Perigee alt
35,763.3 km
Apogee alt
35,810.2 km
Semi-major
42,164.9 km
B*
0.0000e+0
RAAN
202.3124°
Arg perigee
332.1625°
Mean anomaly
223.8028°
Rev number
5,924

§ Raw data

NILESAT 2011 36830U 10037A   26255.15030105 -.00000073  00000+0  00000+0 0  99952 36830   0.0216 202.3124 0005558 332.1625 223.8028  1.00271245 59247

JSON: /api/v1/satellites/36830 · /tle

For live sub-satellite position, see the globe view (requires WebGL).

§ Visibility from observer

Set your observer location to see the next 7 days of passes ≥ 10°. The values pass through the URL so the page stays shareable.

No JS? Fill the form by hand. The geolocation button needs JavaScript.